CubeBel-2 (EU11S)
1 57175U 23091K   26234.63531726  .00011585  00000-0  39366-3 0  9990
2 57175  97.4998 298.4964 0008147 231.6017 128.4492 15.30603246174467
RS-38S
1 57189U 23091Z   26234.61830928  .00015922  00000-0  42853-3 0  9993
2 57189  97.5041 305.5102 0007058 179.2248 180.9009 15.37925053174893
SONATE-2
1 59112U 24043Q   26234.15622700  .00045472  00000-0  48722-3 0  9999
2 59112  97.5591  28.8835 0004726 318.9149  41.1753 15.63704092138183
GRBBeta
1 60237U 24128C   26233.71680644  .00003787  00000-0  26289-3 0  9992
2 60237  61.9918 346.2831 0031445 149.1114 211.1838 15.07041656116141
Curium One
1 60242U 24128H   26233.66745477  .00007053  00000-0  40145-3 0  9995
2 60242  61.9798 333.7030 0030409 144.5988 215.7135 15.13353435116364
ROBUSTA-3A
1 60243U 24128J   26234.52957065  .00006631  00000-0  38695-3 0  9998
2 60243  61.9878 333.4917 0032254 141.8916 218.4469 15.12483796116459
CatSat
1 60246U 24125J   26234.53335673  .00076415  00000-0  70059-3 0  9991
2 60246  97.2020  88.2984 0014510 291.8325  68.1393 15.67385658117755
HYPERVIEW-1G (RS66S)
1 61772U 24199AP  26230.11543498  .07890463  24672-5  93922-3 0  9997
2 61772  97.2456 114.2453 0006603 245.8477 114.2131 16.36574258144515
AO-123
1 61781U 24199AY  26234.60937925  .00006775  00000-0  19157-3 0  9997
2 61781  97.2903 102.6876 0015335  72.7168 287.5753 15.36535541144120
LASARsat
1 62391U 24247Q   26234.49090072  .00033537  00000-0  58017-3 0  9993
2 62391  44.9720 248.4889 0008083  34.5635 325.5780 15.50378992 93592
CroCube
1 62394U 24247T   26234.32988346  .00040333  00000-0  63520-3 0  9995
2 62394  44.9688 245.4723 0008256  43.1519 317.0019 15.52924083 93615
JINJUSat 1B
1 63210U 25052A   26234.66056695  .00015200  00000-0  44385-3 0  9991
2 63210  97.3905 131.5660 0002920 160.6720 199.4635 15.35406270 80293
NUSHSAT 1
1 63211U 25052B   26234.65136277  .00019549  00000-0  51780-3 0  9993
2 63211  97.3878 132.3759 0002552 156.5318 203.6044 15.38394024 80354
TEVEL2-4
1 63213U 25052D   26234.64333320  .00017194  00000-0  48034-3 0  9994
2 63213  97.3800 131.2171 0001658 162.3195 197.8107 15.36768900 80317
TEVEL2-5
1 63214U 25052E   26233.69521997  .00016874  00000-0  47514-3 0  9994
2 63214  97.3801 130.1932 0001372 165.0581 195.0704 15.36526260 80161
TEVEL2-6
1 63215U 25052F   26234.23005095  .00016905  00000-0  47624-3 0  9999
2 63215  97.3798 130.7147 0001346 161.9377 198.1915 15.36511328 80246
TEVEL2-1
1 63217U 25052H   26234.15341547  .00016194  00000-0  46540-3 0  9993
2 63217  97.3774 130.1795 0000817 189.7275 170.3954 15.35895778 80217
TEVEL2-3
1 63218U 25052J   26234.21047505  .00016668  00000-0  47782-3 0  9993
2 63218  97.3779 130.2684 0000734 173.1682 186.9572 15.35969471 80220
TEVEL2-2
1 63219U 25052K   26234.21839119  .00016423  00000-0  47170-3 0  9994
2 63219  97.3773 130.2480 0000823 192.7731 167.3492 15.35911476 80226
TEVEL2-9
1 63237U 25052AD  26234.15414736  .00014650  00000-0  45071-3 0  9999
2 63237  97.3838 129.4080 0003637 265.9831  94.0996 15.33761965 80133
TEVEL2-7
1 63238U 25052AE  26234.46980756  .00014933  00000-0  46421-3 0  9998
2 63238  97.3836 129.6095 0003661 264.1822  95.9003 15.33426073 80179
TEVEL2-8
1 63239U 25052AF  26234.15237361  .00014036  00000-0  43681-3 0  9991
2 63239  97.3834 129.2678 0003673 268.8423  91.2398 15.33404711 80128
SPIRONE
1 66657U 25274H   26233.77198664  .00001628  00000-0  15876-3 0  9991
2 66657  97.7468 162.1327 0012629 149.0647 211.1319 14.93770505 40010
K-HERO
1 66660U 25274L   26233.75872440  .00001864  00000-0  17919-3 0  9996
2 66660  97.7476 162.3283 0014431 154.0787 206.1158 14.94168256 40021
SNUGLITE-III DURI
1 66661U 25274M   26233.74531889  .00001627  00000-0  15696-3 0  9992
2 66661  97.7471 162.3358 0015073 155.4633 204.7308 14.94181951 40026
SAKHACUBE-CHOLBON
1 67290U 25313AU  26234.15104977  .00009701  00000-0  38000-3 0  9990
2 67290  97.3888 308.3949 0010632 119.6993 240.5305 15.25946100 36039
RS95S (QMR-KWT-2)
1 67291U 25313AV  26234.59198423  .00012652  00000-0  46705-3 0  9998
2 67291  97.3885 309.1683 0010195 116.7342 243.4942 15.27847056 36122
Ten-Koh2
1 68261U 25241B   26233.64565077  .00007405  00000-0  30932-3 0  9999
2 68261  51.6633   7.9120 0006321 358.8641   1.2322 15.24604974 24890
JACK-002
1 68417U 26067B   26234.13486960  .00005799  00000-0  27158-3 0  9997
2 68417  97.4620 191.9642 0003818  68.0057 292.1584 15.20101032 21968
DISCO 2
1 68431U 26067R   26233.83695917  .00007707  00000-0  36144-3 0  9999
2 68431  97.4649 191.6636 0004040 106.3367 253.8313 15.19940653 21910
HADES-SA (SpinnyONE)
1 68446U 26067AG  26233.32437733  .00015977  00000-0  72111-3 0  9991
2 68446  97.4443 190.7583 0005655 184.6244 175.4940 15.21059314 21828
PARUS-6U1
1 68456U 26067AS  26234.11378661  .00005000  00000-0  24832-3 0  9997
2 68456  97.4605 191.5121 0005313 174.1529 185.9768 15.18116227 21936
SAL-E
1 68458U 26067AU  26233.82996766  .00007227  00000-0  35261-3 0  9999
2 68458  97.4527 191.1386 0005116 184.5136 175.6053 15.18583769 21897
FSI-SAT 2
1 68792U 26088A   26234.15035016  .00003948  00000-0  26536-3 0  9993
2 68792  97.5154  21.8082 0013002 238.5221 121.4737 15.07276338 18225
OrigamiSat 2
1 68795U 26088D   26233.85856875  .00011414  00000-0  70378-3 0  9996
2 68795  97.5143  21.8907 0014330 208.0991 151.9467 15.10021073 18207
ARICA 2
1 68796U 26088E   26234.22194934  .00004404  00000-0  28287-3 0  9993
2 68796  97.5146  22.1573 0014854 207.2639 152.7811 15.08872307 18253
WASEDA-SAT-ZERO-II
1 68797U 26088F   26234.66813212  .00005137  00000-0  32568-3 0  9990
2 68797  97.5140  22.6314 0014671 204.5856 155.4675 15.09276880 18325
MANGARO-II-Piscus
1 68798U 26088G   26234.65769875  .00002844  00000-0  18237-3 0  9994
2 68798  97.5152  22.6620 0018125 209.1204 150.9015 15.09179712 18329
CO-128
1 69912U 26156AV  26234.51891852  .00001212  00000-0  12854-3 0  9992
2 69912  97.7508 134.1539 0002859  23.2051 336.9296 14.90888203  6881
MARINA
1 69920U 26156BD  26234.61693170  .00002034  00000-0  20567-3 0  9998
2 69920  97.7474 134.3158 0007822  13.1934 346.9488 14.92083067  6908
IO-86
1 40931U          26199.45381863  .00000000  00000-0  77536-4 0    07
2 40931   6.0006 322.6653 0012733 338.8432 273.6875 14.79294310    03
LILIUM-4                
1 71922C 26067AC  26089.50133053 -.00014632  00000+0 -74472-3 0    04
2 71922  97.4497  49.1617 0004341   5.9603 355.7042 15.16896692    16
